TimeEDT,TemperatureF,Dew PointF,Humidity,Sea Level PressureIn,VisibilityMPH,Wind Direction,Wind SpeedMPH,Gust SpeedMPH,PrecipitationIn,Events,Conditions,WindDirDegrees,DateUTC
12:28 AM,80.6,75.2,84,30.07,10.0,ESE,6.9,-,0.00,Thunderstorm,Scattered Clouds,120,2013-08-22 04:28:00
12:45 AM,80.6,75.2,84,30.06,10.0,SE,6.9,-,0.01,,Scattered Clouds,130,2013-08-22 04:45:00
12:53 AM,80.1,73.0,79,30.06,10.0,ESE,5.8,-,0.01,,Scattered Clouds,110,2013-08-22 04:53:00
1:22 AM,80.6,73.4,79,30.05,9.0,ESE,12.7,17.3,0.00,Rain-Thunderstorm,Light Rain,110,2013-08-22 05:22:00
1:37 AM,80.6,71.6,74,30.05,10.0,East,10.4,-,0.01,Rain,Light Rain,100,2013-08-22 05:37:00
1:48 AM,78.8,73.4,83,30.05,10.0,ENE,9.2,-,0.01,Thunderstorm,Scattered Clouds,70,2013-08-22 05:48:00
1:53 AM,80.1,73.9,81,30.05,10.0,East,6.9,-,0.01,Thunderstorm,Partly Cloudy,80,2013-08-22 05:53:00
2:19 AM,80.6,75.2,84,30.05,10.0,ENE,5.8,-,N/A,,Clear,60,2013-08-22 06:19:00
2:53 AM,80.1,75.9,87,30.04,10.0,East,4.6,-,N/A,,Clear,80,2013-08-22 06:53:00
3:53 AM,82.0,77.0,85,30.04,10.0,ESE,5.8,-,N/A,,Partly Cloudy,110,2013-08-22 07:53:00
4:53 AM,82.0,77.0,85,30.01,10.0,ESE,8.1,-,N/A,,Clear,110,2013-08-22 08:53:00
5:53 AM,82.0,75.9,82,30.02,10.0,ESE,5.8,-,N/A,,Clear,110,2013-08-22 09:53:00
6:53 AM,82.0,75.9,82,30.02,10.0,ESE,5.8,-,N/A,,Clear,110,2013-08-22 10:53:00
7:53 AM,84.0,77.0,79,30.04,10.0,ESE,5.8,-,N/A,,Scattered Clouds,110,2013-08-22 11:53:00
8:53 AM,86.0,75.9,72,30.05,10.0,ESE,10.4,-,N/A,,Scattered Clouds,110,2013-08-22 12:53:00
9:53 AM,89.1,75.0,63,30.06,10.0,ESE,13.8,-,N/A,,Partly Cloudy,120,2013-08-22 13:53:00
10:53 AM,89.1,75.9,65,30.06,10.0,ESE,13.8,-,N/A,,Scattered Clouds,110,2013-08-22 14:53:00
11:53 AM,91.0,75.0,59,30.06,10.0,ESE,12.7,19.6,N/A,,Partly Cloudy,110,2013-08-22 15:53:00
12:53 PM,90.0,75.0,61,30.05,10.0,East,13.8,-,N/A,,Mostly Cloudy,90,2013-08-22 16:53:00
1:02 PM,89.6,75.2,62,30.04,10.0,ESE,17.3,-,N/A,,Mostly Cloudy,110,2013-08-22 17:02:00
1:53 PM,91.9,73.9,55,30.03,10.0,ESE,13.8,20.7,N/A,,Partly Cloudy,110,2013-08-22 17:53:00
2:53 PM,91.9,75.0,58,30.02,10.0,ESE,13.8,-,N/A,,Scattered Clouds,110,2013-08-22 18:53:00
3:53 PM,91.9,73.9,55,29.99,10.0,ESE,15.0,-,N/A,,Scattered Clouds,110,2013-08-22 19:53:00
4:32 PM,87.8,75.2,66,29.98,10.0,East,13.8,-,0.00,,Mostly Cloudy,100,2013-08-22 20:32:00
4:53 PM,89.1,75.0,63,29.98,10.0,ESE,11.5,-,0.00,,Mostly Cloudy,110,2013-08-22 20:53:00
5:01 PM,89.6,75.2,62,29.97,10.0,ESE,15.0,-,N/A,,Scattered Clouds,120,2013-08-22 21:01:00
5:53 PM,89.1,73.9,61,29.98,10.0,East,15.0,19.6,0.00,,Mostly Cloudy,90,2013-08-22 21:53:00
6:04 PM,87.8,73.4,62,29.96,10.0,ESE,9.2,-,N/A,,Scattered Clouds,110,2013-08-22 22:04:00
6:53 PM,86.0,75.9,72,29.97,10.0,East,9.2,-,N/A,,Mostly Cloudy,80,2013-08-22 22:53:00
7:16 PM,86.0,75.2,70,29.97,10.0,East,10.4,-,N/A,,Scattered Clouds,80,2013-08-22 23:16:00
7:53 PM,84.9,75.9,74,29.99,10.0,East,8.1,-,N/A,,Partly Cloudy,80,2013-08-22 23:53:00
8:53 PM,84.9,75.9,74,30.01,10.0,ESE,5.8,-,0.00,,Scattered Clouds,110,2013-08-23 00:53:00
9:15 PM,82.4,75.2,79,30.01,10.0,SSE,5.8,-,N/A,,Mostly Cloudy,160,2013-08-23 01:15:00
9:27 PM,82.4,75.2,79,30.01,10.0,SE,5.8,-,N/A,,Scattered Clouds,140,2013-08-23 01:27:00
9:53 PM,84.9,73.9,69,30.01,10.0,ESE,10.4,-,N/A,,Clear,110,2013-08-23 01:53:00
10:53 PM,84.9,73.9,69,30.02,10.0,East,8.1,-,N/A,,Clear,100,2013-08-23 02:53:00
11:53 PM,82.9,73.9,74,30.03,10.0,East,4.6,-,N/A,,Clear,100,2013-08-23 03:53:00